Погода в Стенбергене

Нидерланды     51°35′09″N   4°18′52″E
темп.,
°C
ветер,
м/с
пор.,
м/с
влажн.,
%
обл.,
%
осадки,
мм/ч
давл.,
гПа
погр.,
м
22 января, пт
пт2201:00+4сз81191100 7.8 984661
04:00+5зюз81285100 0.4 987562
07:00+4юз688669 0.4 990269
10:00+5зюз610837 0.0 992398
13:00+5зюз577952 0.0 993452
16:00+6зюз4678100 0.0 993333
19:00+4зюз3481100 0.0 995107
22:00+4юз4584100 0.0 996147
23 января, сб
сб2301:00+3ю458787 0.0 996163
04:00+2ююв458840 0.0 994161
07:00+3юв599270 0.6 994362
10:00+4ю5989100 0.3 993528
13:00+4зюз3488100 0.3 994402
16:00+3сз101285100 0.1 995877
19:00+3сз4780100 0.1 996463
22:00+3з2380100 0.1 997110
24 января, вс
вс2401:00+3зсз4580100 0.7 998477
04:00+3зюз3480100 0.4 998206
07:00+2зюз568069 0.6 1000190
10:00+2юз347414 0.0 1000173
13:00+3ююз347155 0.0 1000299
16:00+3в1167100 0.0 999131
19:00+2в3373100 0.0 1000247
22:00+1ссв11775 0.0 100282
25 января, пн
пн2501:00+2ю12743 0.0 1004104
04:00+2юз567786 0.0 1005352
07:00+1ю688293 0.0 1005355
10:00+1ююз6892100 0.1 1005471
13:00+2зюз2394100 0.6 1007238
16:00+4зсз578067 0.1 1008675
19:00+3з697669 0.1 1010773
22:00+4зюз3790100 0.5 1011483
26 января, вт
вт2601:00+4зсз5118799 1.1 1012465
04:00+4зсз598459 0.1 1013469
07:00+4з588679 0.2 1014437
10:00+4юз5886100 0.1 1015511
13:00+4юз7981100 0.1 1014509
16:00+4ююз71181100 0.1 1012662
19:00+4ю91493100 2.8 1009708
22:00+6юз101791100 2.9 1005584